FW4559 Weather Reports


Display with metric or nautical units.
time (UTC)temp
F
wind
direction
speed
MPH
gust
MPH
rain 1hr
in
rain 24hr
in
rain mn
in
humidity
%
barometer
mb
20260510185557 74 345 3.0 8.0 0.00 0.00 0.00 33 1015.9
20260510185053 75 338 4.0 10.0 0.00 0.00 0.00 33 1015.8
20260510184600 75 245 2.0 10.0 0.00 0.00 0.00 34 1015.8
20260510184054 74 295 1.0 8.0 0.00 0.00 0.00 34 1015.9
20260510183652 74 277 2.0 8.0 0.00 0.00 0.00 35 1015.8
20260510183052 75 330 3.0 7.0 0.00 0.00 0.00 33 1015.8
20260510182554 74 135 2.0 7.0 0.00 0.00 0.00 33 1015.6
20260510182050 74 269 3.0 7.0 0.00 0.00 0.00 31 1015.7
20260510181559 74 272 3.0 7.0 0.00 0.00 0.00 35 1015.9
20260510181050 73 185 1.0 7.0 0.00 0.00 0.00 34 1016.0
20260510180550 73 297 1.0 7.0 0.00 0.00 0.00 34 1015.9
20260510180050 74 2 2.0 7.0 0.00 0.00 0.00 35 1016.0
20260510175549 72 342 3.0 9.0 0.00 0.00 0.00 35 1016.1
20260510175048 72 318 5.0 13.0 0.00 0.00 0.00 34 1015.9
20260510174551 72 312 1.0 13.0 0.00 0.00 0.00 35 1016.0
20260510174046 73 131 4.0 10.0 0.00 0.00 0.00 31 1016.2
20260510173548 74 297 3.0 7.0 0.00 0.00 0.00 33 1016.1
20260510173047 74 265 1.0 3.0 0.00 0.00 0.00 32 1016.1
20260510172546 73 117 1.0 8.0 0.00 0.00 0.00 31 1016.3
20260510172046 72 188 2.0 10.0 0.00 0.00 0.00 32 1016.3
20260510171548 73 327 5.0 10.0 0.00 0.00 0.00 30 1016.3
20260510171044 73 97 2.0 8.0 0.00 0.00 0.00 30 1016.3
20260510170545 72 117 4.0 9.0 0.00 0.00 0.00 28 1016.4
20260510170054 72 311 4.0 9.0 0.00 0.00 0.00 32 1016.5
20260510165545 72 358 2.0 9.0 0.00 0.00 0.00 31 1016.5
20260510165048 72 98 0.0 8.0 0.00 0.00 0.00 31 1016.4
20260510164545 73 349 4.0 9.0 0.00 0.00 0.00 30 1016.5
20260510164043 73 338 3.0 9.0 0.00 0.00 0.00 29 1016.5
20260510163543 73 214 0.0 12.0 0.00 0.00 0.00 31 1016.5
20260510163043 71 226 2.0 12.0 0.00 0.00 0.00 33 1016.5
20260510162541 72 201 5.0 12.0 0.00 0.00 0.00 29 1016.6
20260510162043 72 264 1.0 7.0 0.00 0.00 0.00 30 1016.7
20260510161541 72 6 2.0 7.0 0.00 0.00 0.00 30 1016.7
20260510161041 73 334 2.0 8.0 0.00 0.00 0.00 30 1016.7
20260510160540 72 253 3.0 8.0 0.00 0.00 0.00 33 1016.7
20260510160041 71 235 1.0 10.0 0.00 0.00 0.00 33 1016.7
20260510155538 71 218 5.0 10.0 0.00 0.00 0.00 35 1016.6
20260510155040 70 213 0.0 8.0 0.00 0.00 0.00 35 1016.6
20260510154537 71 250 3.0 7.0 0.00 0.00 0.00 35 1016.7
20260510154037 71 79 2.0 5.0 0.00 0.00 0.00 36 1016.7
20260510153535 70 94 0.0 7.0 0.00 0.00 0.00 36 1016.7
20260510153038 70 293 2.0 8.0 0.00 0.00 0.00 35 1016.8
20260510152534 70 72 1.0 8.0 0.00 0.00 0.00 37 1016.7
20260510152035 69 11 0.0 6.0 0.00 0.00 0.00 39 1016.8
20260510151533 69 309 2.0 8.0 0.00 0.00 0.00 39 1016.8
20260510151031 68 347 0.0 8.0 0.00 0.00 0.00 42 1016.6
20260510150530 67 223 0.0 8.0 0.00 0.00 0.00 43 1016.7
20260510150040 67 330 5.0 8.0 0.00 0.00 0.00 41 1016.9
20260510145531 67 345 1.0 11.0 0.00 0.00 0.00 41 1016.8
20260510145028 66 315 4.0 11.0 0.00 0.00 0.00 43 1016.9
20260510144533 66 337 2.0 11.0 0.00 0.00 0.00 43 1017.0
20260510144027 66 225 2.0 13.0 0.00 0.00 0.00 44 1016.9
20260510143526 65 325 2.0 13.0 0.00 0.00 0.00 44 1016.9
20260510143025 65 342 2.0 10.0 0.00 0.00 0.00 43 1016.8
20260510142525 65 25 4.0 11.0 0.00 0.00 0.00 43 1016.8
20260510142026 65 40 5.0 11.0 0.00 0.00 0.00 42 1016.8
20260510141531 66 289 2.0 9.0 0.00 0.00 0.00 42 1016.8
20260510141024 66 339 2.0 6.0 0.00 0.00 0.00 44 1016.7
20260510140523 66 341 2.0 8.0 0.00 0.00 0.00 45 1016.7
20260510140022 65 358 1.0 8.0 0.00 0.00 0.00 46 1016.7
20260510135524 65 8 1.0 5.0 0.00 0.00 0.00 49 1016.5
20260510135021 65 36 1.0 5.0 0.00 0.00 0.00 49 1016.6
20260510134521 65 283 0.0 3.0 0.00 0.00 0.00 50 1016.8
20260510134021 64 328 1.0 5.0 0.00 0.00 0.00 49 1016.9
20260510133519 65 8 2.0 5.0 0.00 0.00 0.00 48 1016.9
20260510133018 65 307 0.0 2.0 0.00 0.00 0.00 50 1016.8
20260510132517 64 13 0.0 2.0 0.00 0.00 0.00 51 1016.7
20260510132016 64 179 0.0 3.0 0.00 0.00 0.00 53 1016.6
20260510131515 63 289 1.0 3.0 0.00 0.00 0.00 54 1016.6
20260510131015 63 316 0.0 3.0 0.00 0.00 0.00 54 1016.8
20260510130513 63 307 0.0 3.0 0.00 0.00 0.00 57 1016.6
20260510130012 61 45 0.0 1.0 0.00 0.00 0.00 60 1016.7
20260510125513 60 46 0.0 1.0 0.00 0.00 0.00 63 1016.6
20260510125008 58 46 0.0 0.0 0.00 0.00 0.00 68 1016.6
20260510124508 58 46 0.0 1.0 0.00 0.00 0.00 68 1016.6
20260510124006 57 46 0.0 1.0 0.00 0.00 0.00 69 1016.5
20260510123505 57 98 0.0 1.0 0.00 0.00 0.00 75 1016.5
20260510123006 56 98 0.0 1.0 0.00 0.00 0.00 74 1016.5
20260510122501 55 98 0.0 1.0 0.00 0.00 0.00 74 1016.5
20260510122100 55 98 0.0 0.0 0.00 0.00 0.00 76 1016.6
20260510121559 53 98 0.0 0.0 0.00 0.00 0.00 82 1016.5
20260510121058 51 98 0.0 0.0 0.00 0.00 0.00 86 1016.5
20260510120557 50 98 0.0 0.0 0.00 0.00 0.00 86 1016.4
20260510120054 49 98 0.0 0.0 0.00 0.00 0.00 87 1016.3
20260510115554 49 98 0.0 2.0 0.00 0.00 0.00 90 1016.2
20260510115054 47 98 0.0 2.0 0.00 0.00 0.00 91 1016.1
20260510114655 46 127 0.0 1.0 0.00 0.00 0.00 93 1016.2
20260510114053 45 331 0.0 1.0 0.00 0.00 0.00 92 1016.3
20260510113551 45 332 0.0 1.0 0.00 0.00 0.00 91 1016.0
20260510113051 45 332 0.0 1.0 0.00 0.00 0.00 91 1015.7
20260510112549 45 332 0.0 1.0 0.00 0.00 0.00 92 1015.5
20260510112049 44 332 0.0 1.0 0.00 0.00 0.00 92 1015.5
20260510111547 44 332 0.0 1.0 0.00 0.00 0.00 92 1015.5
20260510111046 44 332 0.0 1.0 0.00 0.00 0.00 90 1015.3
20260510110545 44 332 0.0 1.0 0.00 0.00 0.00 89 1015.2
20260510110043 45 332 0.0 1.0 0.00 0.00 0.00 88 1015.0
20260510105543 46 332 0.0 0.0 0.00 0.00 0.00 87 1014.9
20260510105042 46 332 0.0 1.0 0.00 0.00 0.00 86 1015.0
20260510104542 47 332 0.0 1.0 0.00 0.00 0.00 85 1014.8
20260510104040 47 332 0.0 1.0 0.00 0.00 0.00 85 1014.8
20260510103543 47 328 0.0 1.0 0.00 0.00 0.00 85 1014.8
20260510103046 47 328 0.0 2.0 0.00 0.00 0.00 86 1014.8
20260510102540 47 328 0.0 2.0 0.00 0.00 0.00 86 1014.7
20260510102039 47 314 0.0 3.0 0.00 0.00 0.00 87 1014.7
20260510101539 47 331 0.0 2.0 0.00 0.00 0.00 89 1014.6
20260510101037 47 338 1.0 2.0 0.00 0.00 0.00 90 1014.6
20260510100537 47 354 0.0 2.0 0.00 0.00 0.00 91 1014.4
20260510100039 47 354 1.0 3.0 0.00 0.00 0.00 93 1014.3
20260510095538 46 340 1.0 3.0 0.00 0.00 0.00 94 1014.3
20260510095036 46 334 0.0 3.0 0.00 0.00 0.00 94 1014.2
20260510094541 46 351 1.0 2.0 0.00 0.00 0.00 94 1014.1
20260510094034 46 351 1.0 2.0 0.00 0.00 0.00 94 1014.2
20260510093534 45 351 0.0 2.0 0.00 0.00 0.00 94 1014.1
20260510093033 46 351 0.0 2.0 0.00 0.00 0.00 92 1014.1
20260510092533 46 351 0.0 2.0 0.00 0.00 0.00 92 1014.0
20260510092031 47 351 0.0 2.0 0.00 0.00 0.00 92 1014.0
20260510091532 48 351 0.0 2.0 0.00 0.00 0.00 93 1014.0
20260510091033 48 15 1.0 2.0 0.00 0.00 0.00 94 1013.9
20260510090531 48 15 0.0 1.0 0.00 0.00 0.00 94 1013.8
20260510090032 47 15 0.0 2.0 0.00 0.00 0.00 95 1013.8
20260510085530 47 15 0.0 2.0 0.00 0.00 0.00 95 1013.7
20260510085029 47 15 0.0 1.0 0.00 0.00 0.00 95 1013.7
20260510084529 46 15 0.0 1.0 0.00 0.00 0.00 95 1013.7
20260510084031 46 15 0.0 1.0 0.00 0.00 0.00 94 1013.7
20260510083529 46 15 0.0 1.0 0.00 0.00 0.00 94 1013.6
20260510083028 46 329 0.0 1.0 0.00 0.00 0.00 94 1013.6
20260510082527 46 360 0.0 1.0 0.00 0.00 0.00 94 1013.5
20260510082031 46 96 0.0 1.0 0.00 0.00 0.00 94 1013.5
20260510081536 46 96 0.0 1.0 0.00 0.00 0.00 94 1013.4
20260510081027 46 96 0.0 1.0 0.00 0.00 0.00 93 1013.4
20260510080527 46 96 0.0 2.0 0.00 0.00 0.00 92 1013.4
20260510080030 47 96 0.0 2.0 0.00 0.00 0.00 91 1013.4
20260510075526 47 112 0.0 3.0 0.00 0.00 0.00 91 1013.2
20260510075024 48 345 0.0 6.0 0.00 0.00 0.00 91 1013.2
20260510074524 48 340 2.0 6.0 0.00 0.00 0.00 93 1013.1
20260510074023 48 11 2.0 5.0 0.00 0.00 0.00 93 1013.0
20260510073523 48 329 3.0 5.0 0.00 0.00 0.00 94 1013.0
20260510073023 47 339 2.0 4.0 0.00 0.00 0.00 95 1013.0
20260510072522 46 343 2.0 3.0 0.00 0.00 0.00 93 1013.0
20260510072021 47 329 0.0 2.0 0.00 0.00 0.00 93 1013.1
20260510071520 47 112 0.0 1.0 0.00 0.00 0.00 93 1013.1
20260510071019 47 112 0.0 1.0 0.00 0.00 0.00 93 1013.2
20260510070519 47 111 0.0 1.0 0.00 0.00 0.00 93 1013.0
20260510070021 47 112 0.0 1.0 0.00 0.00 0.00 93 1013.1
20260510065518 47 111 0.0 0.0 0.00 0.00 0.00 92 1013.2
20260510065018 48 111 0.0 0.0 0.00 0.00 0.00 92 1013.1
20260510064520 48 112 0.0 1.0 0.00 0.00 0.00 93 1013.1
20260510064018 48 112 0.0 1.0 0.00 0.00 0.00 93 1013.1
20260510063517 47 113 0.0 2.0 0.00 0.00 0.00 93 1013.1
20260510063020 47 83 1.0 2.0 0.00 0.00 0.00 92 1013.2
20260510062516 47 127 1.0 2.0 0.00 0.00 0.00 91 1013.2
20260510062021 48 354 0.0 1.0 0.00 0.00 0.00 90 1013.2
20260510061523 48 354 0.0 2.0 0.00 0.00 0.00 91 1013.2
20260510061017 48 354 1.0 2.0 0.00 0.00 0.00 91 1013.2
20260510060520 49 355 0.0 1.0 0.00 0.00 0.00 88 1013.4
20260510060015 49 355 0.0 2.0 0.00 0.00 0.00 88 1013.4
20260510055515 50 355 0.0 2.0 0.00 0.00 0.00 89 1013.4
20260510055012 50 355 1.0 2.0 0.00 0.00 0.00 91 1013.5
20260510054512 49 1 1.0 2.0 0.00 0.00 0.00 91 1013.5
20260510054012 48 356 1.0 2.0 0.00 0.00 0.00 92 1013.4
20260510053510 48 352 0.0 2.0 0.00 0.00 0.00 92 1013.4
20260510053010 47 352 0.0 0.0 0.00 0.00 0.00 91 1013.3
20260510052509 47 352 0.0 1.0 0.00 0.00 0.00 91 1013.4
20260510052008 48 352 0.0 1.0 0.00 0.00 0.00 90 1013.3
20260510051516 48 352 0.0 1.0 0.00 0.00 0.00 90 1013.3
20260510051007 48 352 0.0 1.0 0.00 0.00 0.00 90 1013.3
20260510050607 48 352 0.0 3.0 0.00 0.00 0.00 90 1013.3
20260510050005 48 343 1.0 3.0 0.00 0.00 0.00 90 1013.4
20260510045508 48 212 0.0 1.0 0.00 0.00 0.00 90 1013.3
20260510045005 48 212 0.0 1.0 0.00 0.00 0.00 90 1013.2
20260510044509 48 212 0.0 0.0 0.00 0.00 0.00 90 1013.2
20260510044005 48 212 0.0 0.0 0.00 0.00 0.00 90 1013.3
20260510043503 48 212 0.0 1.0 0.00 0.00 0.00 89 1013.2
20260510043006 49 212 0.0 1.0 0.00 0.00 0.00 89 1013.2
20260510042501 49 212 0.0 1.0 0.00 0.00 0.00 89 1013.2
20260510042002 49 212 0.0 1.0 0.00 0.00 0.00 88 1013.3
20260510041637 49 212 0.0 1.0 0.00 0.00 0.00 88 1013.2
20260510041102 49 212 0.0 1.0 0.00 0.00 0.00 87 1013.1
20260510040558 49 116 0.0 1.0 0.00 0.00 0.00 87 1013.1
20260510040058 50 116 0.0 1.0 0.00 0.00 0.00 86 1013.1
20260510035557 50 116 0.0 1.0 0.00 0.00 0.00 86 1013.2
20260510035058 50 116 0.0 1.0 0.00 0.00 0.00 85 1013.1
20260510034559 51 116 0.0 1.0 0.00 0.00 0.00 85 1013.2
20260510034059 51 116 0.0 1.0 0.00 0.00 0.00 84 1013.2
20260510033556 51 116 0.0 1.0 0.00 0.00 0.00 83 1013.3
20260510033116 51 116 0.0 1.0 0.00 0.00 0.00 83 1013.2
20260510032556 51 116 0.0 2.0 0.00 0.00 0.00 84 1013.2
20260510032056 51 96 0.0 1.0 0.00 0.00 0.00 83 1013.1
20260510031557 51 96 0.0 2.0 0.00 0.00 0.00 83 1013.2
20260510031055 51 96 1.0 2.0 0.00 0.00 0.00 83 1013.2
20260510030558 52 158 0.0 1.0 0.00 0.00 0.00 81 1013.2
20260510030056 52 96 0.0 2.0 0.00 0.00 0.00 82 1013.1
20260510025556 51 96 0.0 1.0 0.00 0.00 0.00 83 1013.2
20260510025057 52 110 0.0 2.0 0.00 0.00 0.00 82 1013.2
20260510024609 52 117 0.0 2.0 0.00 0.00 0.00 82 1013.2
20260510024054 52 127 0.0 1.0 0.00 0.00 0.00 82 1013.0
20260510023554 52 127 0.0 0.0 0.00 0.00 0.00 81 1013.0
20260510023059 52 127 0.0 1.0 0.00 0.00 0.00 80 1013.0
20260510022554 53 127 0.0 1.0 0.00 0.00 0.00 79 1013.0
20260510022053 53 127 0.0 1.0 0.00 0.00 0.00 79 1012.9
20260510021554 53 127 0.0 1.0 0.00 0.00 0.00 79 1012.8
20260510021053 54 120 0.0 1.0 0.00 0.00 0.00 77 1012.8
20260510020554 54 120 0.0 1.0 0.00 0.00 0.00 76 1012.7
20260510020054 55 120 0.0 1.0 0.00 0.00 0.00 75 1012.6
20260510015555 55 120 0.0 1.0 0.00 0.00 0.00 74 1012.6
20260510015055 56 107 0.0 1.0 0.00 0.00 0.00 73 1012.5
20260510014612 56 107 0.0 0.0 0.00 0.00 0.00 71 1012.3
20260510014052 56 107 0.0 1.0 0.00 0.00 0.00 71 1012.3
20260510013552 57 107 0.0 2.0 0.00 0.00 0.00 70 1012.2
20260510013102 57 107 0.0 2.0 0.00 0.00 0.00 70 1012.2
20260510012555 57 115 0.0 2.0 0.00 0.00 0.00 70 1012.0
20260510012051 57 120 1.0 2.0 0.00 0.00 0.00 70 1011.9
20260510011551 57 113 0.0 1.0 0.00 0.00 0.00 70 1012.0
20260510011050 57 113 0.0 2.0 0.00 0.00 0.00 70 1012.0
20260510010550 58 113 0.0 2.0 0.00 0.00 0.00 69 1011.9
20260510010051 58 98 0.0 3.0 0.00 0.00 0.00 69 1011.7
20260510005551 58 110 1.0 3.0 0.00 0.00 0.00 69 1011.5
20260510005049 58 135 1.0 3.0 0.00 0.00 0.00 68 1011.5
20260510004553 59 129 0.0 1.0 0.00 0.00 0.00 67 1011.4
20260510004049 60 311 0.0 1.0 0.00 0.00 0.00 65 1011.2
20260510003549 60 311 0.0 1.0 0.00 0.00 0.00 64 1011.1
20260510003049 60 338 0.0 2.0 0.00 0.00 0.00 62 1011.0
20260510002548 61 338 0.0 2.0 0.00 0.00 0.00 62 1010.9
20260510002049 61 292 1.0 2.0 0.00 0.00 0.00 61 1010.8
20260510001549 61 300 1.0 2.0 0.00 0.00 0.00 60 1010.8
20260510001050 61 342 0.0 3.0 0.00 0.00 0.00 60 1010.8
20260510000551 62 342 0.0 4.0 0.00 0.00 0.00 60 1010.7
20260510000049 62 1 0.0 5.0 0.00 0.00 0.00 60 1010.8
20260509235549 62 334 2.0 5.0 0.00 0.00 0.00 59 1010.7
20260509235050 62 337 1.0 6.0 0.00 0.00 0.00 59 1010.8
20260509234547 63 332 2.0 9.0 0.00 0.00 0.00 58 1010.9
20260509234048 63 4 3.0 9.0 0.00 0.00 0.00 57 1010.8
20260509233548 63 334 3.0 10.0 0.00 0.00 0.00 56 1010.8
20260509233051 64 318 3.0 10.0 0.00 0.00 0.00 56 1010.6
20260509232547 64 356 2.0 7.0 0.00 0.00 0.00 56 1010.5
20260509232048 64 298 2.0 7.0 0.00 0.00 0.00 55 1010.6
20260509231557 64 346 3.0 6.0 0.00 0.00 0.00 55 1010.6
20260509231046 65 352 2.0 9.0 0.00 0.00 0.00 54 1010.7
20260509230550 65 336 3.0 9.0 0.00 0.00 0.00 54 1010.5
20260509230046 65 229 2.0 8.0 0.00 0.00 0.00 53 1010.5
20260509225545 65 339 3.0 8.0 0.00 0.00 0.00 52 1010.4
20260509225045 65 322 1.0 7.0 0.00 0.00 0.00 52 1010.4
20260509224545 65 315 4.0 7.0 0.00 0.00 0.00 50 1010.5
20260509224045 66 300 1.0 11.0 0.00 0.00 0.00 50 1010.4
20260509223545 66 342 3.0 11.0 0.00 0.00 0.00 49 1010.4
20260509223050 66 21 5.0 11.0 0.00 0.00 0.00 48 1010.2
20260509222549 67 329 6.0 11.0 0.00 0.00 0.00 47 1010.0
20260509222044 67 274 1.0 11.0 0.00 0.00 0.00 47 1010.1
20260509221546 67 261 2.0 10.0 0.00 0.00 0.00 46 1010.1
20260509221043 67 230 2.0 10.0 0.00 0.00 0.00 46 1010.1
20260509220543 67 132 5.0 11.0 0.00 0.00 0.00 46 1010.1
20260509220045 67 311 5.0 13.0 0.00 0.00 0.00 48 1010.0
20260509215547 67 82 5.0 17.0 0.00 0.00 0.00 49 1009.9
20260509215041 67 13 6.0 17.0 0.00 0.00 0.00 48 1009.8
20260509214542 68 41 4.0 10.0 0.00 0.00 0.00 47 1010.1
20260509214043 68 350 5.0 12.0 0.00 0.00 0.00 47 1010.0
20260509213541 68 280 5.0 12.0 0.00 0.00 0.00 48 1010.1
20260509213045 68 215 4.0 11.0 0.00 0.00 0.00 47 1010.1
20260509212540 68 284 4.0 11.0 0.00 0.00 0.00 46 1010.0
20260509212040 68 170 3.0 11.0 0.00 0.00 0.00 47 1009.8
20260509211541 68 129 3.0 11.0 0.00 0.00 0.00 47 1009.7
20260509211040 68 339 5.0 11.0 0.00 0.00 0.00 46 1009.6
20260509210540 69 144 3.0 10.0 0.00 0.00 0.00 45 1009.6
20260509210051 68 216 2.0 11.0 0.00 0.00 0.00 47 1009.7
20260509205539 69 325 5.0 12.0 0.00 0.00 0.00 45 1009.6
20260509205039 69 183 3.0 16.0 0.00 0.00 0.00 45 1009.6
20260509204538 69 135 1.0 11.0 0.00 0.00 0.00 44 1009.5
20260509204039 69 187 2.0 10.0 0.00 0.00 0.00 44 1009.6
20260509203539 68 157 2.0 12.0 0.00 0.00 0.00 46 1009.4
20260509203038 68 218 5.0 12.0 0.00 0.00 0.00 45 1009.3
20260509202540 68 215 3.0 13.0 0.00 0.00 0.00 46 1009.4
20260509202038 68 350 6.0 15.0 0.00 0.00 0.00 45 1009.5
20260509201536 68 297 4.0 15.0 0.00 0.00 0.00 46 1009.4
20260509201035 68 320 3.0 12.0 0.00 0.00 0.00 47 1009.4
20260509200534 68 243 3.0 10.0 0.00 0.00 0.00 58 1009.4
20260509200040 68 127 3.0 8.0 0.00 0.00 0.00 61 1009.3
20260509195538 67 91 1.0 4.0 0.00 0.00 0.00 60 1009.4
20260509195033 68 148 0.0 4.0 0.00 0.00 0.00 60 1009.6
20260509194534 68 183 0.0 2.0 0.00 0.00 0.00 61 1009.5
20260509194035 67 131 0.0 7.0 0.00 0.00 0.00 63 1009.4
20260509193533 66 337 1.0 9.0 0.00 0.00 0.00 64 1009.4
20260509193032 66 103 1.0 6.0 0.00 0.00 0.00 64 1009.4
20260509192531 66 153 1.0 6.0 0.00 0.00 0.00 63 1009.6
20260509192031 66 117 2.0 6.0 0.00 0.00 0.00 63 1009.5
20260509191532 66 138 1.0 6.0 0.00 0.00 0.00 62 1009.6
20260509191035 67 137 2.0 7.0 0.00 0.00 0.00 60 1009.4
20260509190531 67 157 0.0 3.0 0.00 0.00 0.00 61 1009.6
20260509190039 67 62 0.0 3.0 0.00 0.00 0.00 60 1009.6